Location: Earls Croome
(52.0667°N, 2.2000°W)
Time: 12:30:45
(UTC+00:00)

IDEFIX/ARIANE 42P - Pass Details

Date: 17 November 2019
Orbit: 784 x 803 km, 98.3° (Epoch: 15 December)

Event Time Altitude Azimuth Distance (km) Brightness Sun altitude
Rises 05:42:59 0° 6° (N) 3,296 5.7 -16.4°
Reaches altitude 10° 05:45:53 10° 350° (N) 2,361 4.8 -16.0°
Enters shadow 05:49:06 19° 312° (NW) 1,785 3.9 -15.5°
